Temp
92 92 94 94 97 76 86 87 79 84 95 89 79 80 84 82 76 71 83 82 87 95 95 98 97 97 99 100 101 101 100 103 102 99 101 101 99 100 99 99 98 96 97 96 96 95 95 95 94 93 92 92 91 91 91 89 89 90 89 89 89 90 90
93 97 95 95 97 97 91 80 86 96 99 94 82 71 74 73 69 72 82 77 81 81 75 93 93 94 96 96 98 103 101 103 102 100 100 100 99 100 100 99 97 97 97 96 97 98 97 96 95 93 92 93 92 92 92 90 89 89 90 90 90 90 89
92 96 95 90 95 98 90 89 100 85 74 72 81 78 66 66 65 69 76 81 82 83 80 90 88 91 92 93 95 98 101 101 101 101 100 99 100 99 100 99 98 97 97 96 95 98 99 97 94 94 94 94 94 94 93 93 90 91 91 93 91 91 91
93 92 89 75 83 93 96 98 93 96 88 80 74 77 78 75 67 68 70 77 73 85 87 92 89 92 93 93 95 98 101 101 102 102 101 100 99 99 100 100 99 98 99 99 99 99 99 97 96 96 97 97 97 95 93 93 93 92 92 91 91 90 91
91 78 84 80 84 80 83 85 84 89 87 93 90 87 79 74 70 69 68 66 74 86 96 95 91 93 95 96 95 96 99 99 103 104 103 100 99 98 99 99 99 99 99 100 100 100 101 100 98 98 98 97 98 97 96 95 92 93 93 93 92 91 91
79 82 91 90 90 89 87 85 82 85 83 79 72 69 87 84 75 65 69 67 78 92 100 96 99 97 97 98 98 98 101 104 102 103 105 102 100 99 100 102 103 102 99 100 101 100 100 101 99 99 99 99 99 98 98 97 98 96 96 93 92 91 91
82 86 93 95 95 94 93 90 85 89 88 86 78 64 74 83 82 84 79 73 77 94 99 98 99 98 99 100 101 100 102 102 105 105 108 105 101 100 102 102 104 103 100 100 99 97 98 98 96 98 99 99 99 99 99 98 97 97 99 97 95 91 91
90 92 94 95 95 93 89 91 92 90 84 87 84 81 82 77 80 76 75 69 79 94 97 98 100 98 101 101 102 99 101 103 103 104 106 102 100 99 101 102 103 102 101 99 96 96 95 95 95 96 98 98 99 100 100 100 99 98 98 98 97 93 91
74 81 86 87 93 91 86 85 89 91 90 90 90 88 87 76 78 80 73 66 78 90 96 97 98 100 100 100 103 102 100 102 104 104 104 102 100 98 99 99 100 100 100 97 94 94 93 94 96 95 96 97 99 98 100 101 100 100 99 98 97 95 93
59 60 62 67 74 80 85 88 89 90 89 88 85 76 77 68 75 76 74 75 84 91 93 95 97 98 96 98 100 103 103 100 102 102 103 98 98 94 96 96 98 98 96 95 94 93 92 94 96 94 94 97 98 98 99 102 101 100 99 100 99 96 95
70 73 76 86 86 85 79 83 85 87 90 91 87 82 76 72 75 74 76 79 81 85 91 91 96 96 95 96 97 98 100 102 102 101 98 98 95 94 96 95 96 95 94 94 93 93 94 96 95 95 96 96 97 95 97 101 101 100 98 98 96 96 95
78 84 83 88 86 82 85 83 84 87 87 87 84 79 75 80 77 69 77 80 80 82 88 92 93 95 95 95 95 99 100 102 103 102 94 93 95 95 94 94 94 93 93 93 92 92 93 94 94 95 95 96 96 95 96 99 101 101 100 97 96 95 94
81 84 85 88 86 87 89 87 85 84 86 86 82 80 85 82 76 72 79 81 79 84 90 94 94 95 95 98 98 100 102 102 101 99 99 97 96 94 94 92 92 92 92 91 91 91 92 93 93 93 94 94 94 95 96 96 101 100 98 96 95 95 93
81 82 83 85 85 85 84 85 86 86 86 85 85 86 87 86 79 83 84 82 83 89 91 95 97 98 99 100 100 101 101 102 99 101 99 100 100 97 94 93 93 92 92 91 90 90 90 91 91 93 92 92 94 94 95 97 97 99 96 94 93 93 92
77 83 84 84 84 83 82 84 86 88 89 87 86 86 86 86 85 87 86 81 81 91 94 95 98 97 99 100 100 100 99 100 102 101 102 102 101 102 98 93 94 93 92 91 90 90 90 90 91 91 91 92 93 97 95 96 95 97 97 92 92 91 91
71 79 81 82 83 83 81 82 84 84 84 82 86 82 87 83 79 81 83 78 81 89 95 97 96 95 95 94 96 98 98 102 100 99 101 101 100 101 101 97 93 92 92 91 90 90 91 92 91 91 91 92 93 94 94 94 97 98 95 93 91 90 91
67 76 80 79 81 77 73 75 81 84 86 89 89 90 89 88 88 81 76 78 87 90 92 92 92 95 94 95 97 97 98 97 100 99 99 101 101 101 97 95 93 94 95 94 91 92 92 92 92 93 93 94 91 93 92 93 94 94 92 92 90 90 90
68 76 78 80 73 61 63 81 88 87 84 85 85 86 88 90 91 86 89 88 90 92 92 91 90 92 92 94 95 99 96 95 97 100 100 102 103 104 103 99 98 95 95 95 94 93 92 93 95 94 93 93 93 94 93 93 92 92 91 90 89 89 89
67 73 75 65 60 62 80 89 91 91 90 89 86 86 91 93 93 92 91 92 90 92 93 93 93 94 96 99 98 100 102 99 99 98 101 100 100 101 101 98 101 96 95 94 94 92 93 95 94 94 94 95 94 93 92 91 91 90 90 90 89 89 89
73 69 67 55 59 77 85 88 89 92 91 90 86 84 88 92 93 92 90 92 94 93 93 95 96 95 98 99 97 98 102 103 101 103 103 103 103 103 103 99 97 95 96 95 95 93 94 95 96 95 94 96 95 92 92 91 91 90 90 89 89 89 88
63 65 66 66 74 76 80 80 82 84 79 81 77 69 75 85 90 93 90 91 93 95 96 96 97 98 99 94 95 103 103 101 104 106 105 106 104 105 102 103 100 96 96 95 96 93 94 95 95 95 96 96 94 92 91 91 89 89 89 88 88 88 88
70 64 64 64 64 59 69 75 81 86 86 85 85 76 75 86 90 90 90 90 91 93 96 96 96 96 90 86 89 98 104 106 104 106 107 108 107 108 106 101 100 95 96 96 95 94 94 94 94 93 95 94 91 89 89 89 89 88 89 88 89 88 89
68 65 61 61 56 62 71 72 79 82 86 86 84 76 69 83 87 91 90 89 91 93 93 93 94 89 83 84 89 98 104 105 106 105 104 106 108 107 104 101 98 96 94 94 94 93 93 92 92 93 93 92 90 89 88 88 89 89 88 89 89 89 89
65 65 61 60 68 66 70 79 81 85 86 85 78 61 65 76 81 85 84 85 85 85 87 93 91 87 83 86 92 103 104 105 105 103 102 102 104 104 102 101 98 94 93 92 91 92 92 91 92 92 93 92 89 88 88 91 90 89 89 89 90 90 90
64 61 64 67 69 76 81 82 84 86 86 81 63 57 71 77 82 84 85 85 88 87 86 87 86 91 93 95 99 103 104 104 106 107 103 101 103 102 102 99 92 93 92 92 91 91 91 91 92 92 91 90 88 88 88 89 88 89 90 90 89 89 88
65 66 63 64 70 77 82 83 86 87 78 60 60 74 77 81 81 85 85 85 85 88 87 87 89 94 101 101 103 100 98 98 97 98 100 101 101 101 97 90 90 92 93 90 91 92 91 92 92 92 90 88 87 87 88 88 89 90 89 88 88 87 87
70 68 64 61 52 70 82 84 83 82 70 71 76 78 82 85 84 85 84 84 86 86 86 90 90 93 98 103 101 97 96 94 93 94 95 94 95 93 90 90 92 93 90 89 89 89 93 94 92 92 90 86 86 87 86 86 88 87 87 87 86 86 85
64 63 60 59 73 76 84 80 72 76 78 79 79 79 79 84 85 84 82 84 84 86 85 88 90 93 94 93 93 91 91 92 93 93 92 91 90 90 94 94 92 92 87 88 89 92 93 91 91 90 88 86 85 84 83 85 86 85 85 85 84 83 83
71 67 71 72 77 80 84 82 79 80 81 82 82 82 82 81 82 83 83 81 84 86 86 85 89 91 91 88 89 89 89 90 89 88 88 88 89 91 91 92 90 90 91 89 90 88 89 88 88 88 87 84 82 81 83 84 84 84 83 82 81 81 82
75 74 75 78 79 80 81 85 84 84 84 86 85 83 81 82 84 85 82 81 82 84 86 84 88 88 88 85 83 85 88 89 88 88 89 89 90 91 89 88 88 88 89 88 86 85 85 86 86 85 86 84 80 80 83 83 83 83 82 81 80 80 82
65 55 70 73 75 78 79 80 83 85 87 86 85 82 82 83 84 86 84 82 83 84 84 83 84 86 88 87 86 85 84 86 86 87 87 87 87 87 86 87 87 88 87 86 85 85 85 86 87 87 86 84 82 82 82 84 84 82 81 80 79 80 80
63 62 68 71 75 74 77 77 77 79 81 83 85 84 84 83 85 84 82 82 80 84 80 77 78 77 78 80 80 82 82 83 83 83 83 84 85 87 88 87 87 87 86 86 85 85 84 85 86 86 85 84 83 83 86 87 85 82 79 79 79 80 80
63 63 71 73 72 71 72 74 76 79 80 79 79 80 80 82 82 82 83 84 80 80 78 81 81 80 78 79 79 81 82 81 81 82 82 83 83 84 85 85 84 83 83 83 82 83 83 85 85 85 85 87 88 86 85 84 82 81 80 80 82 82 82
58 61 66 72 65 62 67 69 72 75 77 77 76 77 77 77 77 79 81 81 82 83 83 82 81 79 79 81 82 80 81 81 82 83 84 84 85 85 85 85 84 83 83 83 82 83 84 86 86 86 86 87 88 90 87 86 84 81 81 82 82 83 83
52 60 67 67 68 68 68 69 70 72 76 76 74 72 72 72 74 76 76 78 78 79 80 82 81 79 78 79 81 82 82 80 82 83 83 83 84 85 85 84 83 82 82 82 82 82 83 84 85 86 86 87 87 88 86 85 84 82 82 81 83 84 83
67 67 66 71 71 66 67 69 68 68 71 74 71 70 70 72 72 74 74 75 75 76 78 79 80 79 80 80 80 79 80 81 81 82 83 85 84 85 85 83 81 81 81 81 81 81 83 83 84 84 85 85 84 85 84 84 84 83 84 83 83 84 86
61 69 71 71 69 70 71 70 69 68 67 68 68 66 66 67 73 74 72 74 75 75 74 75 77 77 77 79 79 78 78 79 80 81 80 79 81 81 82 82 80 79 80 81 82 82 82 82 82 83 82 82 83 84 84 85 84 83 83 84 86 86 83
MSLP
999.69 1000.29 999.97 1000.05 999.25 1005.85 1002.21 1002.97 1004.89 1002.45 1000.45 1002.65 1005.25 1004.89 1003.65 1004.41 1006.05 1006.89 1003.29 1003.25 1001.77 999.45 999.41 998.93 999.21 999.37 999.13 998.77 999.05 999.13 998.69 997.89 997.77 999.37 999.37 999.65 1000.21 1000.37 1000.37 1000.49 1000.89 1001.13 1001.37 1001.73 1001.89 1002.29 1002.77 1003.17 1003.61 1003.97 1004.33 1004.69 1005.17 1005.61 1006.13 1006.69 1006.93 1007.09 1007.41 1007.73 1008.05 1008.29 1008.65
999.17 998.29 999.25 999.53 998.81 998.89 1000.65 1003.97 1001.89 999.37 998.89 1000.57 1003.93 1007.89 1006.65 1007.17 1008.29 1006.57 1003.85 1005.05 1003.69 1003.81 1005.65 999.53 1000.29 1000.17 1000.05 1000.21 999.29 998.53 998.21 997.65 998.25 999.05 999.41 999.25 999.53 999.49 999.41 999.77 1000.09 1000.41 1000.61 1001.09 1001.33 1001.49 1001.81 1002.33 1002.77 1003.33 1003.77 1004.05 1004.49 1004.93 1005.41 1006.13 1006.53 1006.89 1006.93 1007.21 1007.61 1007.89 1008.33
998.89 998.13 999.37 1000.93 999.05 998.09 1000.09 1000.41 997.45 1002.57 1006.17 1006.97 1003.09 1005.01 1008.73 1008.97 1009.17 1007.45 1005.01 1003.73 1002.89 1002.29 1002.77 1000.61 1001.37 1000.53 1000.57 1000.45 999.61 999.09 998.53 998.17 997.89 998.33 999.09 999.41 999.41 999.77 999.41 999.65 1000.01 1000.29 1000.49 1000.85 1001.01 1001.09 1001.17 1001.61 1002.05 1002.57 1003.05 1003.49 1004.01 1004.45 1004.77 1005.17 1005.81 1005.93 1006.21 1006.57 1006.97 1007.33 1007.65
998.25 999.17 1000.57 1004.49 1002.41 999.33 998.37 997.85 998.73 998.09 1001.33 1003.13 1005.53 1003.81 1004.17 1005.33 1007.73 1007.73 1006.61 1004.61 1004.89 1000.89 1000.05 999.41 1000.77 999.49 999.29 999.77 999.33 998.85 998.29 997.93 996.97 996.77 997.89 998.73 999.69 999.65 999.21 999.25 999.41 999.61 999.77 999.97 1000.17 1000.41 1000.69 1001.09 1001.69 1002.05 1002.53 1002.97 1003.49 1003.85 1004.37 1004.77 1004.97 1005.37 1005.81 1006.25 1006.57 1007.09 1007.21
998.93 1002.73 1000.73 1001.81 1000.97 1002.25 1001.69 1001.49 1001.41 999.85 1000.33 998.49 999.89 1001.29 1003.61 1005.37 1006.45 1006.65 1007.05 1007.49 1004.33 999.81 996.69 997.57 999.01 998.65 998.45 998.45 998.45 998.05 997.81 997.25 996.33 996.01 996.65 997.73 998.49 999.01 998.89 998.73 998.77 998.97 999.09 999.29 999.49 999.57 999.77 1000.21 1000.81 1001.29 1001.77 1002.33 1002.69 1003.09 1003.73 1004.05 1004.69 1005.09 1005.45 1005.65 1006.01 1006.41 1006.69
1001.61 1000.49 998.21 998.69 999.09 999.13 999.93 1000.77 1001.65 1000.65 1001.33 1002.85 1005.25 1005.77 1000.69 1001.29 1004.45 1006.41 1006.25 1006.57 1002.37 998.05 995.33 995.93 996.25 997.09 997.53 997.01 996.77 996.97 996.77 996.25 995.97 995.73 995.65 996.41 997.57 998.01 998.25 998.29 998.29 998.53 998.77 998.85 998.97 999.21 999.37 999.85 1000.49 1000.89 1001.09 1001.61 1002.05 1002.49 1002.81 1003.33 1003.77 1004.33 1004.69 1005.13 1005.41 1005.81 1006.17
1000.21 999.21 997.13 996.65 997.37 997.49 997.73 998.53 1000.25 999.21 999.45 999.85 1002.69 1006.21 1002.97 1001.13 1001.41 1001.73 1002.81 1004.57 1002.09 996.29 994.85 994.97 995.37 996.41 996.61 996.09 996.21 996.65 996.41 996.37 995.89 995.61 994.97 995.25 996.61 997.53 997.73 997.85 997.85 997.81 998.21 998.37 998.57 998.97 999.13 999.37 999.85 1000.21 1000.57 1000.97 1001.37 1001.77 1002.17 1002.65 1003.17 1003.57 1003.65 1004.13 1004.57 1005.13 1005.69
997.17 996.77 996.45 996.09 996.65 997.69 998.61 997.89 997.49 998.37 1000.01 999.33 1000.33 1001.37 1001.05 1002.69 1001.69 1003.01 1003.77 1004.57 1001.45 996.61 994.53 994.81 995.17 995.77 995.93 995.37 995.77 996.61 996.57 996.21 995.85 995.45 994.89 995.41 996.61 997.09 997.21 997.21 997.33 997.29 997.65 998.05 998.45 999.05 999.37 999.49 999.89 1000.09 1000.13 1000.41 1000.73 1001.09 1001.45 1001.89 1002.49 1002.77 1003.09 1003.41 1004.01 1004.69 1005.25
1002.05 999.57 998.37 998.49 996.61 997.73 999.01 998.77 997.41 997.33 997.85 998.01 997.89 998.89 998.73 1002.29 1001.53 1001.69 1003.89 1005.53 1001.89 997.69 995.17 994.97 995.21 995.61 996.29 996.33 995.77 995.73 996.53 995.93 995.53 995.33 995.29 995.65 996.09 996.93 997.37 997.45 997.41 997.37 997.61 998.17 998.49 998.77 999.21 999.33 999.41 999.69 999.85 1000.09 1000.37 1000.69 1000.85 1001.25 1001.69 1001.93 1002.41 1002.69 1003.37 1004.13 1004.73
1006.29 1005.65 1004.57 1003.25 1001.53 999.57 998.53 997.93 997.57 997.21 997.69 997.73 999.21 1002.17 1001.49 1003.57 1001.53 1001.57 1002.69 1001.81 999.13 996.93 995.89 995.97 995.57 995.85 996.73 996.45 996.13 995.45 995.41 995.89 995.85 995.49 995.25 996.01 996.45 997.37 997.41 997.57 997.57 997.65 997.65 997.97 998.37 998.73 999.01 999.13 999.25 999.49 999.65 999.73 999.89 1000.17 1000.41 1000.45 1001.05 1001.49 1001.93 1002.17 1002.73 1003.57 1004.21
1001.85 1001.01 999.41 997.13 997.49 998.33 1000.21 999.09 998.57 997.81 996.97 997.13 998.33 999.85 1001.57 1002.49 1001.65 1002.33 1000.77 1000.33 1000.01 998.73 997.41 996.97 995.85 995.89 997.09 997.33 996.61 996.21 995.37 994.93 994.97 995.13 996.05 996.45 997.05 997.53 997.61 997.73 997.53 997.49 997.69 997.97 998.25 998.53 998.85 998.97 999.05 999.21 999.37 999.53 999.61 1000.01 1000.25 1000.17 1000.37 1000.97 1001.41 1001.89 1002.37 1003.05 1003.73
999.17 997.77 997.89 996.61 997.13 998.49 997.89 998.69 998.77 997.89 997.45 997.49 998.65 1000.01 1000.97 999.21 1001.13 1003.09 1000.21 999.41 1000.89 1000.17 997.77 996.65 996.13 995.77 996.13 996.49 996.53 996.01 995.41 994.61 994.57 994.81 996.49 996.69 997.17 997.29 997.49 997.65 997.73 997.89 997.81 998.01 998.41 998.61 998.81 998.97 998.93 999.09 999.09 999.13 999.33 999.73 1000.09 1000.05 1000.09 1000.57 1001.01 1001.61 1002.21 1002.73 1003.37
999.09 998.37 997.33 996.69 997.17 996.77 995.93 997.09 998.01 998.29 997.81 997.65 998.53 998.65 997.97 998.41 1000.57 1001.77 999.69 999.01 1000.29 999.37 997.65 996.17 995.33 995.05 995.37 995.73 995.81 995.09 994.77 994.69 994.61 994.97 995.73 996.53 996.81 997.17 997.49 997.57 997.53 997.73 997.93 998.01 998.21 998.45 998.65 998.73 999.01 999.13 999.13 999.17 999.25 999.49 999.65 999.81 999.85 1000.25 1000.61 1001.41 1002.09 1002.57 1003.09
998.53 998.37 998.17 997.33 997.41 997.29 997.53 997.61 997.25 997.25 997.49 997.73 997.77 997.57 997.13 997.65 998.45 998.01 998.01 998.49 998.65 997.45 997.01 995.93 994.97 994.09 994.09 994.01 994.21 994.13 994.49 994.81 994.65 994.65 994.89 995.81 996.01 996.65 997.25 997.33 997.33 997.41 997.53 997.89 998.13 998.21 998.49 998.61 998.81 998.93 999.01 999.05 999.13 999.45 999.69 999.77 999.93 999.97 1000.45 1001.33 1001.97 1002.41 1002.93
999.21 997.89 997.73 997.73 997.73 997.57 997.61 996.89 996.69 996.01 996.09 996.89 997.01 997.45 997.13 996.93 997.41 997.41 997.81 998.53 998.69 995.93 994.81 995.05 994.41 993.93 993.73 993.69 994.01 994.65 994.53 994.49 994.53 994.77 994.53 994.57 995.09 995.05 995.97 996.81 996.93 997.13 997.33 997.53 997.85 998.05 998.05 998.21 998.41 998.53 998.57 998.65 998.85 999.01 999.33 999.53 999.81 999.81 1000.21 1001.17 1001.73 1002.21 1002.77
1001.09 998.89 998.37 997.81 997.49 997.73 998.13 997.45 996.77 996.77 997.09 997.57 996.29 997.25 996.49 997.53 998.41 998.17 998.37 998.89 998.29 996.21 994.65 994.57 994.85 994.89 994.57 994.93 994.45 994.09 994.29 994.21 994.49 994.53 994.21 994.29 994.41 994.49 994.73 995.45 996.33 996.85 997.21 997.33 997.53 997.65 997.45 997.45 997.85 998.13 998.29 998.37 998.61 998.81 999.05 999.33 999.45 999.49 1000.17 1000.93 1001.61 1002.09 1002.41
1001.61 999.33 998.65 998.77 998.21 999.13 1000.13 998.89 997.01 996.29 995.53 994.73 994.93 994.53 994.73 995.57 996.13 998.13 999.49 998.65 996.25 995.65 995.01 995.73 995.65 995.37 995.21 994.85 994.37 994.09 993.73 993.73 993.85 994.21 994.33 994.25 994.09 994.01 994.45 995.17 995.97 996.37 996.45 996.33 996.57 996.73 996.77 996.81 997.25 997.37 997.53 997.93 998.41 998.37 998.81 998.93 999.05 999.57 1000.25 1000.89 1001.49 1001.97 1002.25
1001.09 999.45 998.85 998.13 1000.01 1003.13 1001.25 995.73 994.81 995.13 996.21 995.49 995.57 995.01 995.01 994.29 994.53 995.73 995.29 995.45 994.89 994.97 995.13 995.57 995.69 995.57 995.09 994.57 993.73 993.09 993.73 994.05 993.85 993.61 993.53 993.57 993.61 993.25 993.33 994.29 995.01 995.61 995.61 995.49 995.69 995.97 996.17 995.97 996.17 996.69 996.97 997.49 997.81 997.85 998.29 998.61 999.09 999.61 1000.25 1000.81 1001.33 1001.85 1002.13
1001.05 999.45 999.33 1001.93 1003.17 1001.25 995.61 993.93 993.73 993.93 994.33 994.57 995.25 994.65 993.17 992.85 993.21 993.53 993.65 993.77 994.45 994.21 994.01 994.17 994.17 993.97 993.57 993.13 993.37 993.25 992.69 992.89 993.13 993.21 992.85 992.89 993.33 993.17 993.13 993.73 993.89 994.73 995.09 995.05 995.25 995.69 995.97 995.89 995.97 996.45 997.01 997.13 997.53 997.85 998.17 998.77 999.01 999.61 1000.13 1000.65 1001.21 1001.61 1002.01
999.41 1000.45 1000.77 1004.25 1001.77 996.65 994.93 993.93 993.65 992.93 993.33 994.01 995.13 995.25 993.73 992.57 992.73 993.05 993.65 993.17 992.93 993.33 993.61 993.13 992.65 992.93 992.93 992.81 992.57 992.41 991.89 991.61 992.13 992.13 992.13 992.13 992.41 992.49 992.45 993.29 993.85 994.21 994.45 994.61 994.73 995.05 994.97 995.37 995.65 996.01 996.65 996.69 997.29 997.85 997.97 998.57 998.97 999.45 1000.01 1000.57 1001.05 1001.33 1001.81
1001.77 1001.21 1001.05 1000.37 997.53 997.45 996.33 996.17 995.37 995.29 996.57 996.49 997.81 1000.33 997.65 994.37 993.17 992.57 993.13 993.21 992.73 992.45 992.29 992.37 992.33 992.13 992.45 993.37 992.97 991.41 991.21 991.33 990.89 990.81 991.05 991.05 991.25 991.09 991.61 992.13 993.05 993.37 993.45 993.93 994.01 994.49 994.81 994.93 995.17 995.73 996.05 996.41 997.05 997.69 998.25 998.53 998.93 999.45 999.93 1000.53 1000.89 1001.13 1001.45
999.49 1001.05 1001.37 1001.25 1001.29 1002.57 998.77 997.17 996.01 994.89 995.09 995.61 995.69 997.85 997.97 994.37 993.57 993.37 993.05 993.17 993.17 992.85 992.05 991.93 992.09 992.41 994.57 995.61 994.13 991.57 990.41 990.13 990.37 989.93 989.81 989.85 989.97 990.13 990.93 991.61 992.21 992.93 993.13 993.33 993.53 994.01 994.53 994.77 994.81 995.21 995.69 996.29 997.09 997.77 998.21 998.49 998.97 999.53 999.97 1000.41 1000.53 1000.89 1001.17
1000.13 1000.77 1001.85 1001.65 1003.13 1001.13 998.61 998.37 996.69 996.09 995.33 995.37 995.81 998.41 999.81 995.61 994.53 993.69 993.93 994.13 993.09 992.57 992.69 992.69 992.61 994.13 996.13 995.57 993.41 990.81 990.09 990.09 989.81 990.13 990.25 990.17 989.85 990.17 990.89 991.61 992.29 992.73 992.97 993.05 993.37 993.77 994.13 994.81 994.73 994.89 995.49 996.21 997.09 997.85 998.09 998.41 998.77 999.41 999.89 1000.13 1000.37 1000.81 1001.01
999.97 1000.41 1001.49 1001.61 999.13 1000.01 998.69 996.61 996.21 995.29 995.05 995.49 997.93 1003.17 1000.85 997.61 996.13 995.29 995.29 995.21 995.33 994.85 993.65 992.37 992.61 994.01 995.61 994.49 992.09 990.21 989.85 989.61 989.29 989.61 990.01 990.25 990.29 990.49 990.85 991.21 991.65 992.29 992.73 993.21 993.81 994.05 994.33 994.53 994.37 994.81 995.37 996.21 997.05 997.57 997.97 998.13 998.77 999.33 999.65 999.89 1000.09 1000.33 1000.65
999.97 1000.57 1000.41 999.49 998.45 996.21 995.69 995.81 995.53 995.13 995.01 996.69 1001.61 1002.65 999.13 997.01 995.85 995.37 994.97 994.93 994.29 994.05 993.97 993.69 994.13 991.93 991.49 990.81 990.17 989.69 989.37 989.17 988.57 988.65 989.49 990.09 990.13 990.45 990.93 991.33 991.73 992.57 992.97 993.33 993.85 993.97 994.09 994.09 994.25 994.81 995.49 996.41 997.25 997.61 997.85 998.33 998.97 999.17 999.29 999.57 999.97 1000.29 1000.73
999.25 999.33 1000.41 999.69 998.09 995.81 995.09 995.05 995.09 994.69 997.57 1001.69 1001.53 997.93 996.73 995.93 995.81 995.05 995.05 994.97 994.45 993.77 993.69 993.25 992.73 991.21 989.69 989.33 989.21 990.09 990.89 990.77 990.29 990.29 990.25 990.33 990.45 990.61 990.81 991.65 992.25 992.77 993.01 993.57 993.81 994.01 994.17 994.37 994.49 995.05 995.73 996.73 997.29 997.61 998.05 998.73 998.89 998.85 999.37 999.77 1000.09 1000.61 1001.17
997.81 998.53 999.57 1000.21 1002.13 997.41 995.21 995.13 995.53 995.77 999.25 998.29 997.25 996.49 995.69 995.17 995.13 995.05 994.97 995.01 994.29 994.01 993.85 992.73 992.17 991.53 990.25 988.73 989.53 990.73 991.21 991.65 991.77 991.41 991.33 991.41 991.57 992.01 992.53 992.73 992.65 992.73 993.33 993.81 994.29 994.57 994.29 994.37 994.81 995.29 996.01 996.89 997.33 997.69 998.45 998.81 998.81 999.17 999.57 999.93 1000.45 1000.97 1001.49
998.73 998.93 999.93 999.73 996.77 996.57 995.05 995.85 998.33 997.05 996.77 996.37 996.13 996.33 996.29 995.13 995.05 995.05 995.13 994.61 994.37 993.97 993.93 993.17 992.17 991.17 990.81 990.85 991.13 991.81 992.05 992.09 991.93 991.77 991.85 992.01 992.41 992.73 992.41 992.53 992.81 993.09 993.93 994.17 994.45 994.29 994.13 994.49 995.01 995.61 996.21 997.05 997.53 998.17 998.89 998.73 998.93 999.25 999.69 1000.17 1000.65 1001.25 1001.73
996.21 997.25 996.77 997.13 995.65 995.33 994.93 995.41 996.37 996.21 995.73 995.53 995.65 995.73 995.65 995.69 995.41 994.89 994.89 995.05 994.41 993.97 993.89 993.61 992.61 991.89 991.97 992.65 992.65 992.89 992.93 992.85 992.81 992.77 992.77 992.77 992.81 992.73 992.85 993.09 993.21 993.45 993.77 994.09 994.37 994.81 994.93 995.13 995.41 995.89 996.41 997.41 998.17 998.85 998.97 998.81 999.33 999.73 1000.21 1000.65 1001.13 1001.53 1001.81
995.69 996.25 996.41 996.01 995.65 995.65 995.49 995.17 995.57 995.73 995.57 995.17 995.33 995.73 995.85 995.57 995.09 994.73 995.25 995.09 994.85 994.29 993.81 994.53 993.45 993.09 992.81 993.57 994.17 994.17 993.53 993.33 993.21 992.93 992.77 992.65 992.65 992.97 993.41 993.65 993.65 993.81 994.05 994.69 995.29 995.53 995.53 995.57 996.05 996.45 997.05 997.53 998.57 999.05 998.89 999.17 999.45 999.93 1000.45 1001.09 1001.57 1001.69 1001.77
998.17 1000.77 997.89 997.13 996.85 996.29 996.37 996.57 996.05 995.57 995.21 995.37 995.37 996.17 995.73 995.61 995.21 994.73 994.81 995.09 994.85 994.45 994.37 994.41 994.21 993.73 993.29 993.69 993.93 994.01 994.09 993.77 993.65 993.65 993.69 993.57 993.57 993.77 994.01 993.85 993.69 994.01 994.49 995.05 995.37 995.57 996.09 996.13 996.41 996.97 997.53 997.97 998.37 998.73 999.13 999.29 999.65 1000.09 1000.61 1001.09 1001.57 1001.65 1002.01
998.89 999.61 998.41 997.73 997.33 997.49 997.09 997.05 997.21 996.97 996.61 996.37 996.13 995.97 995.65 995.61 995.41 995.33 995.73 995.69 996.01 995.17 995.69 996.01 995.69 995.81 995.73 995.25 995.29 994.93 994.77 994.69 994.65 994.73 994.65 994.37 994.13 993.93 993.77 993.85 993.93 994.29 994.77 995.29 995.69 996.01 996.45 996.57 996.77 997.21 997.77 998.25 998.53 998.73 998.85 999.09 999.57 1000.21 1000.93 1001.13 1001.25 1001.53 1001.97
999.37 999.69 998.05 997.81 998.13 998.61 998.65 998.25 997.85 997.41 997.29 997.41 997.29 996.89 996.81 996.57 996.53 996.57 996.17 995.93 996.53 996.53 996.85 995.81 995.69 995.93 996.37 996.17 995.93 995.73 995.49 995.41 995.45 995.37 995.13 994.85 994.69 994.53 994.61 994.69 994.77 995.29 995.61 996.05 996.41 996.69 997.09 997.09 997.29 997.61 997.93 998.17 998.37 998.77 999.13 999.57 1000.09 1000.69 1000.89 1000.81 1000.89 1001.25 1001.81
1000.69 999.81 998.85 997.89 999.45 1000.37 999.89 999.65 999.13 998.53 998.25 997.81 997.61 997.61 997.93 998.09 998.21 997.73 997.61 997.49 997.09 996.85 996.57 996.57 996.53 996.61 996.49 996.09 995.69 995.85 995.85 995.93 995.89 995.45 995.17 995.01 994.93 995.05 995.01 995.17 995.49 995.89 996.17 996.45 996.85 997.09 997.25 997.17 997.41 997.77 998.13 998.33 998.41 998.61 999.05 999.53 1000.01 1000.69 1000.85 1000.81 1000.97 1001.33 1001.69
1002.25 1000.29 998.53 998.97 998.89 998.81 999.69 999.85 999.57 999.17 998.41 998.17 998.17 998.49 998.73 999.09 999.13 998.97 998.85 998.49 998.17 997.89 997.49 996.85 996.69 996.85 996.77 996.45 995.85 995.85 996.21 996.45 996.25 995.97 995.81 995.73 995.65 995.65 995.65 996.05 996.45 996.73 997.01 997.13 997.29 997.65 997.73 997.69 997.85 998.09 998.37 998.45 998.61 998.81 999.09 999.49 1000.05 1000.49 1000.65 1000.97 1001.21 1001.45 1001.81
999.17 998.97 999.25 998.33 998.33 999.61 1000.09 1000.09 1000.21 1000.25 999.53 998.93 999.13 999.21 999.33 999.53 1000.09 999.81 999.45 999.29 999.09 998.61 998.05 997.65 997.33 997.21 996.97 996.61 996.49 996.93 996.97 996.85 996.77 996.65 996.25 995.93 995.97 996.05 996.25 996.69 997.09 997.41 997.65 997.81 997.97 998.13 998.05 998.17 998.33 998.45 998.73 998.89 999.05 999.17 999.37 999.69 1000.09 1000.33 1000.45 1000.73 1001.05 1001.33 1001.17
1000.33 998.85 998.53 998.57 999.09 999.49 999.73 1000.17 1000.45 1000.57 1000.61 1000.29 1000.25 1000.37 1000.37 1000.45 1000.09 999.93 1000.09 999.77 999.53 999.49 999.25 998.69 998.33 998.09 997.93 997.53 997.41 997.77 997.97 997.93 997.61 997.33 997.17 997.05 996.97 996.97 997.09 997.25 997.65 997.85 998.01 998.09 998.17 998.25 998.37 998.49 998.61 998.73 999.05 999.25 999.25 999.37 999.49 999.69 999.97 1000.29 1000.45 1000.45 1000.65 1000.81 1001.29
Wind_Speed
18 21 19 20 20 16 14 17 21 20 15 18 15 15 17 17 15 16 12 14 15 13 16 14 12 13 13 15 18 19 19 15 10 10 11 15 17 18 20 20 19 21 21 21 21 22 21 21 21 21 20 20 20 19 19 20 19 18 18 18 17 16 15
21 18 20 22 22 17 11 18 19 18 18 18 15 14 13 16 16 14 16 19 16 15 13 15 20 19 15 16 16 17 16 15 11 11 11 13 18 19 20 19 19 21 22 23 22 21 23 23 23 22 21 20 19 19 19 20 19 19 19 18 17 16 16
19 18 18 19 22 25 21 14 13 16 16 21 18 14 19 18 18 13 15 21 18 15 13 10 16 19 18 19 20 19 18 16 16 15 14 11 14 17 17 19 18 19 20 21 21 22 23 23 21 21 21 21 19 19 19 20 21 20 20 17 16 14 15
15 16 15 17 17 22 27 23 17 18 16 17 18 15 12 13 17 15 17 20 14 13 14 13 13 18 18 19 20 19 16 18 16 12 13 13 8 11 15 17 19 20 21 23 24 24 24 24 23 22 23 21 23 21 20 19 19 18 18 17 16 16 16
13 15 15 19 18 19 20 21 20 14 14 14 14 14 17 15 15 15 14 15 13 14 13 16 18 13 15 17 20 18 18 20 17 13 12 11 14 16 16 17 18 21 22 23 23 23 22 22 21 21 22 23 22 20 21 21 20 20 20 19 18 16 15
16 17 18 21 20 19 18 19 21 20 15 16 18 19 19 20 15 11 14 15 11 12 13 14 12 12 13 15 15 17 17 14 9 7 11 14 13 15 16 16 17 17 18 20 21 20 19 20 22 23 21 21 22 22 20 20 20 19 20 19 17 16 15
15 18 18 20 21 21 20 18 20 23 20 14 15 15 15 15 18 19 17 16 14 10 10 11 12 14 17 15 11 10 9 9 12 12 14 14 11 13 14 15 15 16 17 18 18 20 21 22 21 22 21 21 21 22 21 19 20 20 20 19 17 15 15
12 15 17 18 21 21 20 20 20 20 23 22 15 14 13 15 18 18 17 20 14 14 11 8 8 11 15 15 16 16 15 15 14 16 9 9 10 12 12 12 13 13 15 16 14 17 17 17 18 20 19 19 19 20 20 20 21 21 20 18 18 17 16
12 13 13 15 17 18 16 16 18 21 23 29 24 18 14 16 19 19 16 18 12 13 15 13 13 12 15 16 16 17 17 14 11 9 2 4 7 10 12 12 12 13 15 16 14 15 15 15 18 18 18 18 19 19 20 20 19 20 18 17 17 17 17
16 16 17 17 17 18 15 18 21 24 26 27 21 21 17 15 14 20 18 16 12 13 14 19 17 11 11 14 16 17 17 16 14 13 9 9 8 11 12 11 13 14 13 12 13 15 14 16 17 16 16 18 18 18 19 19 18 17 18 17 18 17 17
13 14 11 10 13 13 17 19 23 23 23 23 22 18 20 20 14 17 18 17 14 15 17 20 21 15 14 13 11 13 15 19 17 8 7 8 8 10 12 13 12 11 11 15 15 15 16 17 17 16 18 18 17 16 18 18 16 16 16 16 15 17 17
19 16 16 14 17 18 18 20 21 23 23 24 25 21 20 16 16 17 16 17 20 22 20 18 20 19 19 17 17 16 13 8 8 10 12 13 13 12 12 13 13 14 13 13 15 16 17 17 16 16 16 17 16 16 17 16 16 16 14 15 15 15 15
23 25 22 17 18 20 18 17 19 21 23 24 25 24 24 21 18 18 16 18 21 20 25 23 19 17 17 17 19 18 16 15 13 10 12 15 15 15 15 14 13 14 15 15 16 17 17 17 18 18 16 16 14 14 15 14 15 16 14 14 15 15 14
20 22 25 23 21 19 19 21 22 22 22 24 26 24 23 27 21 18 17 17 21 20 21 24 23 19 17 16 15 15 17 18 13 15 16 14 11 11 13 14 15 15 15 15 17 17 17 18 18 18 16 16 16 16 15 15 13 13 13 14 14 14 14
17 19 20 24 25 23 23 23 23 24 22 23 25 25 26 24 24 26 26 23 20 16 15 20 22 23 22 15 17 19 17 16 18 18 16 13 14 12 11 12 14 14 15 16 17 18 19 19 19 17 16 15 15 16 15 16 15 15 14 14 14 14 14
16 18 20 22 23 25 26 25 24 24 24 24 22 21 21 22 20 20 23 23 18 15 16 13 16 21 23 25 20 14 14 16 16 15 13 14 13 13 11 10 13 15 16 17 19 20 21 21 20 17 15 16 16 16 15 15 16 15 14 15 15 14 14
16 17 20 21 22 19 20 24 26 26 25 24 23 23 22 23 23 21 20 19 16 15 15 17 16 19 21 22 24 22 18 13 15 15 15 14 14 13 8 8 12 16 18 19 20 21 20 19 19 19 17 16 16 15 15 14 14 14 14 14 14 14 13
14 17 19 17 17 18 20 18 22 24 25 25 26 23 24 25 22 17 17 17 16 18 19 21 21 22 20 19 18 18 16 16 17 22 19 19 19 17 10 10 15 17 16 15 17 19 18 19 19 16 15 14 14 14 14 14 14 14 14 14 13 14 13
13 14 16 17 19 18 14 13 14 19 24 26 26 26 25 24 23 25 25 23 20 18 18 19 21 19 19 21 22 23 24 21 21 20 22 17 19 16 11 13 16 15 16 16 16 17 17 18 17 16 15 14 15 14 15 15 14 15 14 14 13 13 13
9 11 11 13 17 11 13 11 16 18 17 17 20 24 26 24 23 23 23 21 20 20 20 19 17 18 21 21 21 22 23 22 23 24 20 19 21 20 14 11 12 14 16 17 18 18 16 17 17 16 16 15 16 15 15 15 14 14 14 14 13 13 13
13 13 14 16 10 13 13 13 7 3 8 6 6 9 12 16 16 21 20 20 20 20 20 20 18 14 14 15 16 21 23 23 25 24 23 24 22 17 11 16 16 14 15 15 16 16 16 17 17 16 16 15 15 15 15 14 14 14 14 14 13 13 13
12 12 13 11 11 15 11 5 5 2 4 5 6 8 12 16 17 16 18 20 19 21 19 17 15 14 15 16 15 19 21 20 21 20 17 18 18 16 14 12 14 15 14 15 15 17 18 17 17 15 16 15 15 15 15 15 15 14 14 13 13 13 12
10 13 13 12 13 10 4 4 3 4 4 4 6 6 14 9 14 17 17 17 17 21 20 18 16 15 17 17 16 13 14 15 17 18 18 19 16 12 12 15 16 17 16 17 18 18 18 18 17 17 17 17 16 15 15 15 15 14 13 13 12 12 12
14 12 12 13 8 7 10 7 5 1 3 5 2 10 11 7 13 12 14 13 14 14 14 18 18 16 18 18 13 11 15 18 19 19 16 15 15 13 12 13 14 15 15 15 17 18 19 18 18 18 17 16 16 15 15 14 14 13 13 12 12 12 12
15 16 13 10 11 6 7 8 4 5 1 5 9 12 2 10 10 11 11 14 14 12 12 10 16 16 16 14 12 14 14 20 18 11 9 9 11 11 13 13 14 14 14 15 15 16 14 16 17 17 15 15 15 14 14 13 13 12 12 12 12 12 11
17 16 15 13 9 4 10 8 8 2 7 11 9 3 2 8 11 10 12 13 14 13 12 10 10 15 18 20 17 6 3 3 7 6 8 8 9 10 11 14 14 14 14 14 15 15 14 15 16 15 15 14 14 14 13 14 13 12 12 12 11 11 10
12 13 15 12 12 6 8 7 10 5 9 3 5 6 7 7 9 11 10 11 12 13 14 14 12 13 21 15 6 5 6 5 6 7 8 10 11 12 14 14 14 14 15 16 16 16 15 16 14 14 16 16 16 14 15 15 14 13 12 12 12 11 10
14 14 14 6 3 7 7 5 6 5 2 4 6 6 7 6 7 7 9 9 11 12 13 15 13 13 8 1 5 7 7 8 9 9 10 10 11 11 13 14 14 15 15 16 17 16 15 14 14 15 16 16 15 16 17 14 13 13 13 13 12 11 10
12 8 2 6 6 7 5 7 6 5 4 2 3 4 5 5 5 8 8 9 11 12 11 14 12 7 2 4 3 4 6 7 9 11 11 12 12 12 13 15 16 16 16 17 16 17 16 16 14 14 14 16 17 16 13 13 13 13 12 12 11 11 11
9 13 9 5 7 7 8 7 4 6 7 8 6 6 6 7 7 5 6 7 9 10 6 10 7 8 6 9 7 7 8 9 10 10 11 12 13 15 15 16 17 18 19 19 18 18 18 17 15 14 13 15 17 14 13 12 13 13 12 12 11 11 11
2 1 4 6 7 7 9 10 9 8 9 9 9 8 7 7 8 7 4 4 5 4 2 3 1 2 5 7 8 10 10 12 13 13 13 14 15 16 16 17 17 17 17 17 18 19 18 16 15 15 15 13 14 13 13 13 13 12 11 11 11 11 11
4 3 6 9 11 11 13 8 8 10 10 11 11 9 10 10 10 13 9 12 11 8 9 9 9 11 10 8 10 10 11 12 13 14 14 15 16 15 15 16 17 17 17 18 18 18 16 15 14 14 13 13 13 12 12 13 13 13 11 10 12 12 12
2 12 8 9 13 13 12 13 13 10 10 13 16 18 17 15 13 14 15 12 10 11 13 12 12 15 14 11 11 13 12 13 13 14 15 16 17 17 17 16 16 15 16 17 17 17 15 13 14 13 14 13 13 13 12 11 11 11 11 12 12 14 12
4 5 6 11 5 8 8 11 11 11 12 14 18 18 18 17 17 15 15 16 16 15 15 14 14 15 14 14 14 16 16 15 14 14 14 15 17 17 16 15 17 16 16 16 16 15 13 12 13 13 13 13 13 13 13 12 11 11 11 10 11 11 10
1 5 5 7 7 13 10 9 9 11 11 14 19 19 18 18 16 16 17 16 15 16 17 16 17 17 16 17 18 18 17 15 14 14 14 14 14 15 15 16 15 15 14 14 14 14 12 11 12 12 11 11 11 11 10 10 10 11 11 10 10 10 10
7 2 7 5 6 10 9 9 10 12 12 14 17 17 16 15 14 16 16 17 18 15 16 18 18 18 18 19 19 19 18 17 16 16 16 15 14 14 14 14 14 14 13 13 13 12 11 11 11 11 11 11 10 10 10 10 9 9 9 8 9 9 9
2 4 7 9 11 11 10 10 9 10 12 13 14 15 15 15 15 14 15 15 16 18 17 17 18 18 19 18 18 17 16 16 15 14 14 14 15 14 13 13 13 12 10 10 9 9 10 10 11 11 11 10 10 10 10 10 10 9 8 7 8 8 10
Wind_Direction
205 205 208 216 219 219 189 205 219 221 212 226 238 250 240 235 239 239 230 239 226 227 235 225 216 222 220 218 215 222 234 238 201 200 222 194 206 205 205 197 195 193 189 188 189 187 188 188 188 190 187 188 191 190 191 191 192 191 191 191 193 195 196
209 203 206 220 217 230 213 208 218 221 223 232 238 234 228 241 242 231 231 239 232 220 228 198 226 225 202 227 233 229 236 237 210 197 216 209 203 205 197 196 192 192 191 189 188 189 188 187 186 186 185 186 189 190 190 190 190 192 192 191 193 193 194
196 201 201 215 224 219 236 230 193 219 195 219 220 234 230 225 229 239 229 237 242 231 227 194 223 220 201 215 221 230 230 227 209 189 198 217 211 205 195 194 191 192 193 190 189 189 189 187 185 184 183 183 186 188 190 190 192 193 191 191 191 192 193
177 192 195 214 206 216 228 243 232 203 231 220 220 221 247 237 242 229 232 236 240 226 237 205 228 227 209 216 222 224 229 238 236 190 188 196 200 233 204 194 192 192 193 192 191 190 188 186 183 182 182 184 186 188 188 192 193 191 191 191 189 192 192
176 205 198 215 207 201 206 219 231 222 213 228 231 218 220 231 240 242 241 229 233 237 230 203 202 217 216 223 219 213 217 226 231 202 181 175 198 209 208 200 195 193 193 193 194 193 190 184 181 182 183 185 187 188 190 192 192 191 192 192 191 191 190
201 215 207 215 216 212 212 211 219 226 223 204 215 224 217 221 224 235 238 237 234 228 230 239 197 195 224 229 219 199 209 221 235 240 189 173 194 200 205 207 202 196 195 194 193 193 191 185 183 184 184 186 188 190 191 192 193 194 194 192 192 189 189
201 217 220 206 222 229 225 212 219 219 231 229 220 227 222 222 225 232 242 251 233 220 220 223 202 202 220 214 211 219 213 233 241 236 235 160 170 190 200 206 208 196 193 195 193 191 191 187 184 183 184 186 189 190 191 191 193 195 195 193 191 187 187
231 205 222 218 207 227 231 222 221 214 220 225 229 231 223 232 228 224 228 235 230 236 247 243 188 200 226 227 207 212 216 218 222 237 226 128 172 180 197 201 209 200 192 191 189 186 190 188 183 185 183 185 187 190 191 190 194 194 195 193 189 186 186
237 223 198 225 204 206 226 227 216 218 221 223 224 236 230 234 229 231 231 242 226 221 241 234 234 205 211 222 228 224 230 233 239 256 128 202 177 170 188 197 204 198 191 188 188 183 186 187 186 185 184 183 185 188 191 192 193 192 193 192 189 186 187
208 206 205 201 204 203 209 227 227 219 223 218 213 223 226 234 222 230 238 238 227 224 219 230 231 203 197 204 218 224 221 224 227 245 187 183 175 173 184 193 201 198 188 180 182 181 183 188 186 183 183 184 184 186 190 192 191 190 191 192 190 185 188
220 224 230 199 212 208 215 212 225 229 218 222 221 227 231 232 224 234 237 252 253 230 218 230 222 204 199 211 227 253 238 208 208 208 121 170 169 175 187 194 199 193 184 183 183 180 183 187 185 184 184 185 185 183 188 192 189 187 187 189 187 185 187
245 239 229 224 214 227 214 216 217 225 230 216 222 221 229 230 237 233 232 231 233 253 252 234 229 212 214 222 239 236 248 250 206 177 158 173 178 184 188 192 194 193 187 178 179 180 182 186 186 184 185 185 184 182 185 189 187 186 184 185 185 185 184
227 246 258 235 234 241 234 216 223 224 224 233 227 226 232 228 228 238 228 223 231 236 243 250 243 228 211 212 230 227 219 230 218 217 197 181 180 181 184 188 189 187 185 183 180 181 182 184 185 185 185 185 185 184 186 187 187 184 177 177 181 183 182
224 226 239 250 244 232 232 236 230 225 228 227 236 239 231 233 241 243 242 238 236 227 232 238 247 251 230 212 218 229 223 226 241 228 206 192 201 191 189 185 186 188 187 181 182 180 182 186 186 186 185 183 184 182 182 183 186 178 170 172 176 181 183
245 232 230 237 242 249 239 227 233 237 226 228 227 233 238 237 237 240 240 240 241 236 229 230 233 247 254 245 205 219 224 233 230 232 238 219 220 213 188 187 186 186 187 184 184 185 183 186 189 189 185 182 180 181 178 178 179 175 171 169 174 178 181
241 241 243 237 236 235 245 247 239 231 231 235 227 225 225 233 234 236 244 244 238 234 237 228 231 241 246 250 251 217 208 214 229 246 241 236 234 236 231 206 192 184 190 187 188 190 186 184 187 187 183 180 178 179 174 174 176 172 170 168 172 175 177
240 235 239 245 244 246 243 239 238 241 240 232 234 235 227 228 232 232 232 240 244 238 233 236 231 230 235 244 244 247 244 235 233 237 243 245 248 245 195 191 193 195 195 191 192 193 189 182 184 188 182 178 178 174 170 166 171 168 168 167 170 174 174
235 231 238 240 240 232 232 230 237 240 245 249 243 233 229 230 224 235 236 242 236 233 235 233 232 232 234 234 242 246 251 252 244 242 239 239 246 248 214 203 214 203 201 197 193 191 191 185 181 180 181 177 173 169 165 164 168 163 166 165 167 170 171
234 233 231 233 236 236 241 238 240 238 243 248 255 261 250 235 234 238 236 229 234 238 232 232 232 235 239 239 241 241 239 242 245 238 234 225 234 242 225 211 217 205 200 196 188 186 187 183 173 174 177 174 168 166 164 163 164 161 166 165 168 169 172
230 233 224 234 232 251 260 241 233 237 243 246 260 257 256 249 241 240 245 244 233 229 238 240 234 228 229 236 238 238 242 239 237 239 236 226 228 232 222 222 206 195 193 191 186 183 179 176 172 173 174 171 168 165 163 161 161 161 164 166 165 168 171
228 221 232 239 269 256 234 244 254 271 250 253 282 280 291 287 275 251 242 248 248 243 232 231 235 236 240 239 235 236 235 235 241 238 231 233 232 233 203 207 198 186 184 185 181 172 176 176 169 170 169 168 164 159 161 160 159 160 163 165 167 167 168
217 232 230 239 242 244 226 28 81 10 24 316 332 334 280 264 279 293 269 245 248 257 254 243 234 232 241 241 241 232 230 229 234 236 239 237 232 220 211 194 179 172 178 180 170 172 172 173 163 162 165 161 160 160 159 157 158 159 164 165 165 163 163
216 224 236 227 228 233 99 113 336 37 339 338 353 288 266 267 284 282 292 289 275 249 243 243 239 235 235 238 241 230 225 232 234 232 228 234 232 219 199 185 174 174 174 177 169 171 166 166 160 158 161 159 158 158 156 155 157 158 163 161 161 162 159
222 229 228 235 232 217 168 162 174 71 186 96 276 245 240 34 350 347 337 318 315 326 301 259 239 232 237 236 236 239 243 239 231 225 222 220 219 209 184 185 172 167 166 165 166 170 168 162 156 157 159 157 156 154 150 152 154 155 157 156 155 154 149
219 223 235 244 238 243 172 170 161 210 184 217 223 228 336 340 334 336 322 318 314 314 308 297 253 234 244 253 243 250 267 252 225 191 185 199 206 191 179 168 152 157 164 166 168 165 160 155 151 152 151 151 149 146 143 145 146 147 146 144 145 142 143
216 215 232 236 258 207 175 154 216 198 226 230 240 39 283 298 326 334 325 318 320 311 302 301 284 268 248 234 233 210 250 3 74 143 163 167 157 161 156 137 152 156 157 156 159 152 145 146 143 145 146 140 137 133 134 134 133 131 130 131 129 129 133
222 222 226 230 233 124 211 164 199 136 243 294 3 330 325 318 309 309 319 323 307 309 299 289 286 280 264 247 202 206 208 159 147 142 149 152 150 132 126 138 147 150 146 145 140 140 139 138 138 140 136 128 125 127 123 122 124 128 122 121 123 127 134
219 214 223 230 277 130 186 204 240 100 2 353 347 344 319 338 312 315 321 315 317 304 292 285 276 270 289 96 152 149 150 156 150 138 131 128 123 137 144 143 145 139 137 142 145 143 131 130 135 132 123 121 121 118 119 124 122 120 123 125 127 129 132
219 245 207 94 121 130 91 82 97 110 80 60 7 316 338 335 349 330 311 321 319 304 301 301 280 236 200 72 103 159 133 133 136 137 140 141 146 146 142 134 133 140 135 128 124 122 124 117 114 114 113 114 113 112 115 119 119 119 120 125 127 130 132
81 77 90 84 84 108 110 101 59 61 70 62 41 26 3 23 346 344 320 300 298 302 303 265 243 242 183 163 171 193 154 127 114 114 118 121 123 129 129 128 127 118 120 119 114 106 97 97 101 102 108 112 110 111 116 117 121 125 130 131 133 132 132
213 143 103 125 118 108 116 93 74 64 52 56 54 29 18 28 3 6 6 343 326 0 277 253 273 148 132 145 128 123 114 111 108 109 112 119 122 125 119 118 118 114 112 108 103 102 102 103 105 107 106 106 111 119 123 128 129 132 133 135 135 132 128
261 91 102 93 79 59 55 66 69 68 60 50 47 56 54 48 32 37 59 45 35 48 64 61 76 81 61 71 106 108 106 107 108 110 106 101 97 97 99 101 100 101 102 102 102 101 102 104 107 111 114 118 125 131 134 134 134 137 143 141 137 134 138
166 168 175 128 100 83 75 65 58 56 72 76 61 52 45 41 48 49 49 70 78 70 63 66 82 81 75 83 89 93 91 91 91 91 95 95 93 92 87 87 89 93 96 97 99 100 102 107 111 116 121 126 128 128 126 126 136 142 145 144 139 139 143
217 197 162 153 164 129 97 66 53 61 67 72 71 60 51 39 34 34 49 52 50 49 55 61 63 66 73 75 77 74 67 66 65 68 75 79 81 82 83 84 86 88 91 96 99 102 106 111 115 117 120 127 132 133 133 139 142 140 141 139 139 139 146
359 317 91 63 75 94 85 72 51 39 54 64 63 59 54 43 27 31 29 36 43 43 43 43 50 53 52 52 53 56 55 51 51 56 62 69 76 81 83 84 84 86 89 94 97 98 103 108 112 116 120 122 120 122 128 128 136 139 142 139 144 145 153
162 77 30 59 88 96 87 71 45 31 28 54 61 58 51 49 41 29 30 26 26 32 36 38 38 41 45 48 47 48 44 42 43 43 46 55 63 69 72 74 80 85 88 91 97 103 108 110 111 113 111 110 111 118 127 132 138 145 148 154 151 157 176
52 57 119 97 98 88 86 82 60 43 32 37 53 56 52 39 31 42 37 32 27 22 23 32 35 34 37 41 46 45 44 42 37 41 49 51 51 53 59 62 63 66 74 82 90 97 105 112 116 116 115 118 123 129 135 138 146 146 156 163 156 144 116